Ft Pierce, FL

12:16 AM EDT on April 27, 2017 (GMT -0400)
Saint Lucie County International

Weather History for KFPR - March, 2013

Change the Weather History Date:

Friday, March 29, 2013

  Actual Average Record
Temperature  
Mean Temperature 58 °F -  
Max Temperature 73 °F 80 °F 91 °F (1974)
Min Temperature 42 °F 61 °F 42 °F (2013)
Degree Days  
Heating Degree Days 8    
Growing Degree Days 8 (Base 50)    
Moisture  
Dew Point 44 °F    
Average Humidity 66    
Maximum Humidity 93    
Minimum Humidity 37    
Precipitation  
Precipitation 0.00 in - - ()
Sea Level Pressure  
Sea Level Pressure 30.27 in    
Wind  
Wind Speed 3 mph (NNW)    
Max Wind Speed 10 mph    
Max Gust Speed 17 mph    
Visibility 9 miles    
Events      
Averages and records for this station are not official NWS values.
T = Trace of Precipitation, MM = Missing Value Source: NWS Daily Summary

Daily Weather History Graph

Daily Weather History Graph

Search for Another Location

Airport or City:

Trip Planner

Search our weather history database for the weather conditions in past years. The results will help you decide how hot, cold, wet, or windy it might be!

Date:

Astronomy

Mar. 29, 2013 Rise Set
Actual Time 7:15 AM EDT 7:37 PM EDT
Civil Twilight 6:51 AM EDT 8:01 PM EDT
Nautical Twilight 6:24 AM EDT 8:28 PM EDT
Astronomical Twilight 5:56 AM EDT 8:56 PM EDT
Moon 10:17 PM EDT (3/29) 8:38 AM EDT (3/29)
Length of Visible Light 13h 09m
Length of Day
12h 22m
Waning Gibbous, 93% of the Moon is Illuminated
Mar 29
Waning Gibbous
Apr 3
Last Quarter
Apr 10
New
Apr 18
First Quarter
Apr 25
Full

Hourly Weather History & Observations

Time (EDT) Temp. Windchill Dew Point Humidity Pressure Visibility Wind Dir Wind Speed Gust Speed Precip Events Conditions
12:53 AM 46.0 °F - 42.1 °F 86% 30.27 in 9.0 mi Calm Calm - N/A   Clear
1:53 AM 45.0 °F 43.5 °F 41.0 °F 86% 30.27 in 9.0 mi West 3.5 mph - N/A   Clear
2:53 AM 45.0 °F - 42.1 °F 90% 30.26 in 7.0 mi Calm Calm - N/A   Clear
3:53 AM 44.1 °F 42.5 °F 41.0 °F 89% 30.25 in 6.0 mi West 3.5 mph - N/A   Clear
4:53 AM 43.0 °F 40.3 °F 41.0 °F 93% 30.24 in 5.0 mi WNW 4.6 mph - N/A   Clear
5:53 AM 42.1 °F 40.2 °F 39.9 °F 92% 30.25 in 8.0 mi West 3.5 mph - N/A   Clear
6:53 AM 43.0 °F 41.3 °F 39.9 °F 89% 30.26 in 8.0 mi West 3.5 mph - N/A   Clear
7:53 AM 46.9 °F - 45.0 °F 93% 30.28 in 8.0 mi West 3.5 mph - N/A   Clear
8:53 AM 59.0 °F - 50.0 °F 72% 30.30 in 10.0 mi NW 4.6 mph - N/A   Clear
9:53 AM 68.0 °F - 46.0 °F 45% 30.32 in 10.0 mi NNW 6.9 mph - N/A   Clear
10:53 AM 69.1 °F - 42.1 °F 38% 30.32 in 10.0 mi NNE 6.9 mph - N/A   Clear
11:53 AM 71.1 °F - 44.1 °F 38% 30.32 in 10.0 mi Variable 6.9 mph - N/A   Partly Cloudy
12:53 PM 71.1 °F - 44.1 °F 38% 30.30 in 10.0 mi North 8.1 mph - N/A   Clear
1:53 PM 73.0 °F - 45.0 °F 37% 30.28 in 10.0 mi NE 10.4 mph 17.3 mph N/A   Clear
2:53 PM 72.0 °F - 45.0 °F 38% 30.26 in 10.0 mi ENE 8.1 mph - N/A   Clear
3:53 PM 72.0 °F - 45.0 °F 38% 30.24 in 10.0 mi Variable 6.9 mph - N/A   Clear
4:53 PM 71.1 °F - 46.0 °F 41% 30.24 in 10.0 mi NNE 8.1 mph - N/A   Clear
5:53 PM 69.1 °F - 46.9 °F 45% 30.23 in 10.0 mi ENE 8.1 mph - N/A   Clear
6:53 PM 66.9 °F - 46.9 °F 49% 30.23 in 10.0 mi NE 5.8 mph - N/A   Clear
7:53 PM 63.0 °F - 48.0 °F 58% 30.24 in 10.0 mi Calm Calm - N/A   Clear
8:53 PM 55.9 °F - 46.0 °F 69% 30.25 in 10.0 mi Calm Calm - N/A   Clear
9:53 PM 52.0 °F - 46.9 °F 83% 30.26 in 10.0 mi Calm Calm - N/A   Clear
10:53 PM 51.1 °F - 46.9 °F 86% 30.27 in 10.0 mi Calm Calm - N/A   Clear
11:53 PM 50.0 °F - 46.9 °F 89% 30.26 in 10.0 mi Calm Calm - N/A   Clear